| time (UTC) | temp C | wind direction | speed KPH | gust KPH | rain 1hr cm | rain 24hr cm | rain mn cm | humidity % | barometer mb |
| 20260506002522 | 28 | 78 | 4.8 | 9.7 | 0.00 | 0.00 | 0.00 | 31 | 1013.5 |
| 20260506001527 | 27 | 64 | 9.7 | 12.9 | 0.00 | 0.00 | 0.00 | 32 | 1013.6 |
| 20260506000531 | 27 | 43 | 8.0 | 12.9 | 0.00 | 0.00 | 0.00 | 34 | 1013.7 |
| 20260505235517 | 28 | 99 | 6.4 | 11.3 | 0.00 | 0.00 | 0.00 | 32 | 1013.7 |
| 20260505234521 | 28 | 39 | 11.3 | 12.9 | 0.00 | 0.00 | 0.00 | 33 | 1013.8 |
| 20260505233526 | 27 | 0.0 | 0.0 | 0.00 | 0.00 | 0.00 | 34 | 1013.8 | |
| 20260505232544 | 28 | 39 | 9.7 | 14.5 | 0.00 | 0.00 | 0.00 | 33 | 1013.9 |
| 20260505231517 | 27 | 27 | 9.7 | 12.9 | 0.00 | 0.00 | 0.00 | 33 | 1014.0 |
| 20260505230521 | 27 | 358 | 6.4 | 14.5 | 0.00 | 0.00 | 0.00 | 33 | 1014.2 |
| 20260505225520 | 28 | 42 | 16.1 | 19.3 | 0.00 | 0.00 | 0.00 | 34 | 1014.2 |
| 20260505224518 | 27 | 355 | 3.2 | 9.7 | 0.00 | 0.00 | 0.00 | 32 | 1014.3 |
| 20260505223516 | 27 | 0 | 9.7 | 11.3 | 0.00 | 0.00 | 0.00 | 33 | 1014.4 |
| 20260505222520 | 26 | 27 | 12.9 | 20.9 | 0.00 | 0.00 | 0.00 | 34 | 1014.4 |
| 20260505221545 | 27 | 32 | 11.3 | 14.5 | 0.00 | 0.00 | 0.00 | 33 | 1014.4 |
| 20260505220530 | 27 | 42 | 12.9 | 22.5 | 0.00 | 0.00 | 0.00 | 33 | 1014.6 |
| 20260505215515 | 27 | 44 | 12.9 | 19.3 | 0.00 | 0.00 | 0.00 | 33 | 1014.6 |
| 20260505214519 | 27 | 42 | 14.5 | 20.9 | 0.00 | 0.00 | 0.00 | 33 | 1014.6 |
| 20260505213524 | 27 | 38 | 9.7 | 16.1 | 0.00 | 0.00 | 0.00 | 33 | 1014.6 |
| 20260505212528 | 26 | 45 | 16.1 | 29.0 | 0.00 | 0.00 | 0.00 | 35 | 1014.6 |
| 20260505211533 | 26 | 41 | 20.9 | 29.0 | 0.00 | 0.00 | 0.00 | 36 | 1014.8 |
| 20260505210519 | 26 | 43 | 17.7 | 25.7 | 0.00 | 0.00 | 0.00 | 36 | 1014.8 |
| 20260505205523 | 26 | 39 | 20.9 | 25.7 | 0.00 | 0.00 | 0.00 | 37 | 1014.8 |
| 20260505204527 | 26 | 34 | 16.1 | 24.1 | 0.00 | 0.00 | 0.00 | 36 | 1014.9 |
| 20260505203532 | 25 | 17 | 17.7 | 32.2 | 0.00 | 0.00 | 0.00 | 36 | 1014.9 |
| 20260505202518 | 25 | 21 | 19.3 | 25.7 | 0.00 | 0.00 | 0.00 | 38 | 1015.0 |
| 20260505201523 | 25 | 38 | 17.7 | 24.1 | 0.00 | 0.00 | 0.00 | 39 | 1015.0 |
| 20260505200526 | 25 | 38 | 19.3 | 30.6 | 0.00 | 0.00 | 0.00 | 38 | 1015.1 |
| 20260505195530 | 25 | 46 | 19.3 | 20.9 | 0.00 | 0.00 | 0.00 | 39 | 1015.0 |
| 20260505194517 | 25 | 42 | 20.9 | 27.4 | 0.00 | 0.00 | 0.00 | 39 | 1015.0 |
| 20260505193521 | 24 | 38 | 20.9 | 25.7 | 0.00 | 0.00 | 0.00 | 41 | 1015.0 |
| 20260505192605 | 23 | 38 | 22.5 | 27.4 | 0.00 | 0.00 | 0.00 | 41 | 1015.0 |
| 20260505191530 | 23 | 43 | 19.3 | 30.6 | 0.00 | 0.00 | 0.00 | 42 | 1015.0 |
| 20260505190516 | 23 | 42 | 22.5 | 29.0 | 0.00 | 0.00 | 0.00 | 41 | 1015.1 |
| 20260505185601 | 23 | 45 | 16.1 | 19.3 | 0.00 | 0.00 | 0.00 | 43 | 1015.1 |
| 20260505184525 | 22 | 43 | 22.5 | 29.0 | 0.00 | 0.00 | 0.00 | 43 | 1015.2 |
| 20260505183529 | 23 | 39 | 16.1 | 24.1 | 0.00 | 0.00 | 0.00 | 43 | 1015.2 |
| 20260505182516 | 22 | 39 | 24.1 | 27.4 | 0.00 | 0.00 | 0.00 | 43 | 1015.1 |
| 20260505181520 | 22 | 38 | 22.5 | 29.0 | 0.00 | 0.00 | 0.00 | 44 | 1015.1 |
| 20260505180525 | 22 | 30 | 17.7 | 25.7 | 0.00 | 0.00 | 0.00 | 46 | 1015.0 |
| 20260505175528 | 20 | 35 | 24.1 | 32.2 | 0.00 | 0.00 | 0.00 | 47 | 1014.9 |
| 20260505174527 | 20 | 39 | 29.0 | 35.4 | 0.00 | 0.00 | 0.00 | 49 | 1014.9 |
| 20260505173519 | 19 | 44 | 24.1 | 29.0 | 0.00 | 0.00 | 0.00 | 49 | 1014.9 |
| 20260505172524 | 19 | 46 | 22.5 | 27.4 | 0.00 | 0.00 | 0.00 | 50 | 1014.8 |
| 20260505171522 | 19 | 43 | 20.9 | 25.7 | 0.00 | 0.00 | 0.00 | 50 | 1014.9 |
| 20260505170520 | 20 | 32 | 16.1 | 20.9 | 0.00 | 0.00 | 0.00 | 49 | 1014.9 |
| 20260505165519 | 20 | 53 | 14.5 | 20.9 | 0.00 | 0.00 | 0.00 | 50 | 1014.9 |
| 20260505164517 | 20 | 39 | 16.1 | 20.9 | 0.00 | 0.00 | 0.00 | 50 | 1014.9 |
| 20260505163515 | 18 | 44 | 16.1 | 19.3 | 0.00 | 0.00 | 0.00 | 53 | 1014.9 |
| 20260505162531 | 18 | 39 | 17.7 | 22.5 | 0.00 | 0.00 | 0.00 | 52 | 1014.8 |
| 20260505161517 | 17 | 39 | 14.5 | 20.9 | 0.00 | 0.00 | 0.00 | 56 | 1014.8 |
| 20260505160542 | 17 | 39 | 12.9 | 17.7 | 0.00 | 0.00 | 0.00 | 57 | 1014.6 |
| 20260505152521 | 16 | 44 | 12.9 | 16.1 | 0.00 | 0.00 | 0.00 | 59 | 1014.2 |
| 20260505151526 | 16 | 40 | 12.9 | 16.1 | 0.00 | 0.00 | 0.00 | 57 | 1014.2 |
| 20260505150530 | 16 | 197 | 6.4 | 9.7 | 0.00 | 0.00 | 0.00 | 59 | 1013.8 |
| 20260505140540 | 16 | 34 | 17.7 | 25.7 | 0.00 | 0.00 | 0.00 | 59 | 1012.8 |
| 20260505124518 | 15 | 35 | 19.3 | 25.7 | 0.00 | 0.00 | 0.00 | 62 | 1012.3 |
| 20260505123522 | 14 | 42 | 20.9 | 22.5 | 0.00 | 0.00 | 0.00 | 66 | 1012.3 |
| 20260505122526 | 14 | 39 | 8.0 | 12.9 | 0.00 | 0.00 | 0.00 | 66 | 1012.3 |
| 20260505121531 | 14 | 40 | 16.1 | 19.3 | 0.00 | 0.00 | 0.00 | 67 | 1012.1 |
| 20260505120517 | 13 | 35 | 12.9 | 12.9 | 0.00 | 0.00 | 0.00 | 70 | 1012.0 |
| 20260505115521 | 14 | 51 | 8.0 | 9.7 | 0.00 | 0.00 | 0.00 | 67 | 1012.0 |
| 20260505114526 | 15 | 39 | 6.4 | 8.0 | 0.00 | 0.00 | 0.00 | 60 | 1011.9 |
| 20260505113544 | 16 | 0.0 | 0.0 | 0.00 | 0.00 | 0.00 | 57 | 1011.9 | |
| 20260505112557 | 16 | 0.0 | 0.0 | 0.00 | 0.00 | 0.00 | 57 | 1011.8 | |
| 20260505111540 | 16 | 0.0 | 0.0 | 0.00 | 0.00 | 0.00 | 56 | 1011.8 | |
| 20260505110519 | 16 | 0.0 | 0.0 | 0.00 | 0.00 | 0.00 | 56 | 1011.5 | |
| 20260505101529 | 17 | 226 | 6.4 | 9.7 | 0.00 | 0.00 | 0.00 | 51 | 1011.2 |
| 20260505100533 | 17 | 206 | 6.4 | 9.7 | 0.00 | 0.00 | 0.00 | 52 | 1011.0 |
| 20260505095519 | 18 | 302 | 8.0 | 11.3 | 0.00 | 0.00 | 0.00 | 51 | 1010.9 |
| 20260505094524 | 15 | 298 | 8.0 | 11.3 | 0.00 | 0.00 | 0.00 | 60 | 1010.8 |
| 20260505093528 | 16 | 349 | 6.4 | 11.3 | 0.00 | 0.00 | 0.00 | 56 | 1010.7 |
| 20260505092532 | 17 | 311 | 9.7 | 11.3 | 0.00 | 0.00 | 0.00 | 55 | 1010.7 |
| 20260505091519 | 16 | 290 | 9.7 | 9.7 | 0.00 | 0.00 | 0.00 | 57 | 1010.7 |
| 20260505090543 | 18 | 337 | 8.0 | 9.7 | 0.00 | 0.00 | 0.00 | 52 | 1010.7 |
| 20260505085527 | 18 | 299 | 12.9 | 16.1 | 0.00 | 0.00 | 0.00 | 51 | 1010.7 |
| 20260505084532 | 18 | 346 | 8.0 | 11.3 | 0.00 | 0.00 | 0.00 | 51 | 1010.7 |
| 20260505083518 | 17 | 292 | 14.5 | 16.1 | 0.00 | 0.00 | 0.00 | 51 | 1010.7 |
| 20260505082522 | 18 | 276 | 12.9 | 17.7 | 0.00 | 0.00 | 0.00 | 49 | 1010.6 |
| 20260505081526 | 19 | 272 | 14.5 | 16.1 | 0.00 | 0.00 | 0.00 | 47 | 1010.6 |
| 20260505080612 | 20 | 278 | 17.7 | 22.5 | 0.00 | 0.00 | 0.00 | 46 | 1010.8 |
| 20260505075518 | 19 | 279 | 16.1 | 19.3 | 0.00 | 0.00 | 0.00 | 48 | 1010.6 |
| 20260505074522 | 19 | 24 | 6.4 | 9.7 | 0.00 | 0.00 | 0.00 | 47 | 1010.5 |
| 20260505073526 | 19 | 287 | 6.4 | 12.9 | 0.00 | 0.00 | 0.00 | 47 | 1010.4 |
| 20260505072531 | 19 | 0.0 | 0.0 | 0.00 | 0.00 | 0.00 | 48 | 1010.3 | |
| 20260505071557 | 19 | 240 | 3.2 | 6.4 | 0.00 | 0.00 | 0.00 | 50 | 1010.2 |
| 20260505070521 | 19 | 270 | 8.0 | 8.0 | 0.00 | 0.00 | 0.00 | 50 | 1010.1 |
| 20260505065525 | 20 | 282 | 9.7 | 14.5 | 0.00 | 0.00 | 0.00 | 47 | 1010.1 |
| 20260505064530 | 20 | 2 | 8.0 | 11.3 | 0.00 | 0.00 | 0.00 | 44 | 1010.0 |
| 20260505063516 | 19 | 0.0 | 0.0 | 0.00 | 0.00 | 0.00 | 43 | 1009.9 | |
| 20260505062520 | 19 | 0.0 | 0.0 | 0.00 | 0.00 | 0.00 | 45 | 1009.9 | |
| 20260505061524 | 20 | 0.0 | 0.0 | 0.00 | 0.00 | 0.00 | 44 | 1009.9 | |
| 20260505060529 | 19 | 37 | 4.8 | 9.7 | 0.00 | 0.00 | 0.00 | 43 | 1009.9 |
| 20260505055515 | 18 | 34 | 1.6 | 6.4 | 0.00 | 0.00 | 0.00 | 47 | 1009.9 |
| 20260505054520 | 20 | 321 | 8.0 | 9.7 | 0.00 | 0.00 | 0.00 | 40 | 1009.9 |
| 20260505053705 | 21 | 318 | 8.0 | 9.7 | 0.00 | 0.00 | 0.00 | 36 | 1009.9 |
| 20260505052522 | 17 | 40 | 3.2 | 8.0 | 0.00 | 0.00 | 0.00 | 48 | 1009.7 |
| 20260505051520 | 18 | 40 | 6.4 | 6.4 | 0.00 | 0.00 | 0.00 | 49 | 1009.7 |
| 20260505050519 | 18 | 45 | 3.2 | 9.7 | 0.00 | 0.00 | 0.00 | 49 | 1009.9 |
| 20260505041522 | 18 | 0.0 | 0.0 | 0.00 | 0.00 | 0.00 | 45 | 1009.7 | |
| 20260505040526 | 19 | 0.0 | 0.0 | 0.00 | 0.00 | 0.00 | 50 | 1009.4 | |
| 20260505035531 | 20 | 0.0 | 0.0 | 0.00 | 0.00 | 0.00 | 51 | 1009.4 | |
| 20260505034517 | 20 | 0.0 | 0.0 | 0.00 | 0.00 | 0.00 | 48 | 1009.4 | |
| 20260505033521 | 20 | 0.0 | 0.0 | 0.00 | 0.00 | 0.00 | 45 | 1009.3 | |
| 20260505032525 | 21 | 0.0 | 0.0 | 0.00 | 0.00 | 0.00 | 40 | 1009.3 | |
| 20260505031530 | 22 | 0.0 | 0.0 | 0.00 | 0.00 | 0.00 | 41 | 1009.1 | |
| 20260505030516 | 24 | 0.0 | 0.0 | 0.00 | 0.00 | 0.00 | 33 | 1008.9 | |
| 20260505025520 | 25 | 0.0 | 0.0 | 0.00 | 0.00 | 0.00 | 33 | 1008.9 | |
| 20260505024545 | 25 | 0.0 | 0.0 | 0.00 | 0.00 | 0.00 | 32 | 1008.9 | |
| 20260505023529 | 26 | 0.0 | 0.0 | 0.00 | 0.00 | 0.00 | 31 | 1008.9 | |
| 20260505022515 | 27 | 0.0 | 0.0 | 0.00 | 0.00 | 0.00 | 29 | 1009.0 | |
| 20260505021519 | 27 | 0.0 | 0.0 | 0.00 | 0.00 | 0.00 | 29 | 1009.0 | |
| 20260505020524 | 28 | 0.0 | 0.0 | 0.00 | 0.00 | 0.00 | 28 | 1009.0 | |
| 20260505015549 | 28 | 96 | 1.6 | 8.0 | 0.00 | 0.00 | 0.00 | 27 | 1009.1 |
| 20260505014533 | 28 | 112 | 6.4 | 11.3 | 0.00 | 0.00 | 0.00 | 28 | 1009.1 |
| 20260505013519 | 28 | 62 | 9.7 | 12.9 | 0.00 | 0.00 | 0.00 | 27 | 1009.1 |
| 20260505012544 | 29 | 68 | 9.7 | 11.3 | 0.00 | 0.00 | 0.00 | 27 | 1009.2 |
| 20260505011528 | 29 | 45 | 3.2 | 8.0 | 0.00 | 0.00 | 0.00 | 27 | 1009.3 |
| 20260505010537 | 30 | 20 | 8.0 | 14.5 | 0.00 | 0.00 | 0.00 | 25 | 1009.4 |
| 20260505005518 | 29 | 60 | 8.0 | 9.7 | 0.00 | 0.00 | 0.00 | 27 | 1009.3 |
| 20260505004523 | 29 | 36 | 11.3 | 14.5 | 0.00 | 0.00 | 0.00 | 26 | 1009.4 |
| 20260505003527 | 29 | 46 | 12.9 | 14.5 | 0.00 | 0.00 | 0.00 | 27 | 1009.4 |